Location: Erlenbrunn
(49.1717°N, 7.6142°E)
Time: 09:50:56
(UTC+00:00)

NOAA 6 - Pass Details

Date: 25 November 2020
Orbit: 773 x 786 km, 98.7° (Epoch: 26 January)

Event Time Altitude Azimuth Distance (km) Brightness Sun altitude
Rises 16:15:49 0° 161° (SSE) 3,259 7.3 -6.3°
Reaches altitude 10° 16:18:07 10° 161° (SSE) 2,333 6.6 -6.6°
Maximum altitude 16:23:16 84° 74° (ENE) 792 4.0 -7.4°
Drops below altitude 10° 16:28:27 10° 346° (NNW) 2,341 6.4 -8.2°
Sets 16:30:46 0° 346° (NNW) 3,271 7.2 -8.5°
